"Pseudo-MPEC" for A10QMRO

Created 2022 Nov 26 21:22:03 UT using Find_Orb

Click here for an explanation of pseudo-MPECs

 
 Astrometry: 
     A10QMRO* C2022 11 20H^?N]m!\N(ibN8)xAstrometry8N2WJ`[9DT8#Zwv.Zi/ql`j0H+W68
     A10QMRO  C2022 11 20q:3]r7C-PhbPZe0W;rk+'bVMHF7J?:Uredacted;6.hsZ%phU^P_W68
     A10QMRO  C2022 11 20?oIP0ABoH*LclickP,rgV7[e'jSJ2qlA/B(kOYVJUKL9QE$j!o%fW68
     A10QMRO  C2022 11 20wosQt_f2c`:hereTforiMd9\jeuAh@y2uo7;Fa4explanationw[W68

Station data:
(W68) ATLAS Chile, Rio Hurtado  (S30.471010 W70.764980)  Chile.

Orbital elements:  A10QMRO
   Perigee 2022 Nov 19.91982 +/- 6.04 TT = 22:04:32 (JD 2459903.41982)
Epoch 2022 Nov 20.0 TT = JDT 2459903.5                        AutoNEOCP
q 57140.1024 +/- 3.77e+6            (J2000 equator)
H   31.7  G 0.15                    Peri.  306.92436 +/- 160
                                    Node    52.73090 +/- 48
e   3.8574676 +/- 0.213             Incl.   33.98872 +/- 0.8
From 4 observations 2022 Nov. 20 (18.2 min); mean residual 2".08
Residuals in arcseconds: 
221120 W68  2.7+  2.9+    221120 W68  .59-  1.8-    
221120 W68  2.8-  2.4-    221120 W68  .64+  1.3+    

Ephemerides (geocentric):
Date (UTC) HH   RA             Dec           delta  r     elong  mag " sig PA
---- --------  ------------   ------------  ------ ------ -----  --- --------
2022 11 26 21  06 29 54.367   +25 31 16.57  .01844 1.0025 147.4 24.4  39d  15
2022 11 26 22  06 29 55.849   +25 31 29.48  .01855 1.0026 147.5 24.4  41d  15
2022 11 26 23  06 29 57.303   +25 31 42.24  .01866 1.0027 147.5 24.4  43d  16
2022 11 27 00  06 29 58.731   +25 31 54.86  .01877 1.0028 147.6 24.4  46d  17
2022 11 27 01  06 30 00.131   +25 32 07.32  .01888 1.0029 147.6 24.4  52d 163
2022 11 27 02  06 30 01.505   +25 32 19.64  .01899 1.0030 147.6 24.4  49d 161
2022 11 27 03  06 30 02.854   +25 32 31.82  .01910 1.0031 147.7 24.4  47d 159
2022 11 27 04  06 30 04.177   +25 32 43.86  .01921 1.0032 147.7 24.5  44d 157
2022 11 27 05  06 30 05.474   +25 32 55.76  .01932 1.0033 147.7 24.5  41d 155
2022 11 27 06  06 30 06.748   +25 33 07.52  .01943 1.0033 147.8 24.5  38d 154
2022 11 27 07  06 30 07.996   +25 33 19.15  .01954 1.0034 147.8 24.5  35d 152
2022 11 27 08  06 30 09.221   +25 33 30.65  .01965 1.0035 147.9 24.5  32d 152
2022 11 27 09  06 30 10.423   +25 33 42.03  .01975 1.0036 147.9 24.5  30d 151
2022 11 27 10  06 30 11.601   +25 33 53.27  .01986 1.0037 147.9 24.5  27d 151
2022 11 27 11  06 30 12.757   +25 34 04.39  .01997 1.0038 148.0 24.5  25d 151
2022 11 27 12  06 30 13.890   +25 34 15.39  .02008 1.0039 148.0 24.5  24d 152
2022 11 27 13  06 30 15.001   +25 34 26.27  .02019 1.0040 148.0 24.6  22d 152
2022 11 27 14  06 30 16.090   +25 34 37.03  .02030 1.0041 148.1 24.6  21d 153
2022 11 27 15  06 30 17.157   +25 34 47.67  .02041 1.0042 148.1 24.6  19d 154
2022 11 27 16  06 30 18.204   +25 34 58.20  .02052 1.0043 148.2 24.6  18d 154
2022 11 27 17  06 30 19.230   +25 35 08.62  .02063 1.0044 148.2 24.6  17d 155
2022 11 27 18  06 30 20.235   +25 35 18.92  .02074 1.0045 148.2 24.6 982' 156
2022 11 27 19  06 30 21.219   +25 35 29.12  .02085 1.0046 148.3 24.6 933' 157
2022 11 27 20  06 30 22.184   +25 35 39.20  .02096 1.0046 148.3 24.6 889' 157
2022 11 27 21  06 30 23.130   +25 35 49.18  .02107 1.0047 148.3 24.6 850' 158
2022 11 27 22  06 30 24.055   +25 35 59.06  .02118 1.0048 148.4 24.6 814' 159
2022 11 27 23  06 30 24.962   +25 36 08.83  .02129 1.0049 148.4 24.7 783' 159
2022 11 28 00  06 30 25.850   +25 36 18.50  .02140 1.0050 148.5 24.7 755' 160
2022 11 28 01  06 30 26.719   +25 36 28.07  .02151 1.0051 148.5 24.7 730' 161
2022 11 28 02  06 30 27.570   +25 36 37.54  .02162 1.0052 148.5 24.7 709' 161
2022 11 28 03  06 30 28.403   +25 36 46.92  .02173 1.0053 148.6 24.7 690' 162
2022 11 28 04  06 30 29.218   +25 36 56.20  .02184 1.0054 148.6 24.7 674' 162
2022 11 28 05  06 30 30.015   +25 37 05.38  .02195 1.0055 148.7 24.7 661' 163
2022 11 28 06  06 30 30.795   +25 37 14.48  .02206 1.0056 148.7 24.7 651' 163
2022 11 28 07  06 30 31.558   +25 37 23.48  .02217 1.0057 148.7 24.7 643' 164
2022 11 28 08  06 30 32.304   +25 37 32.39  .02228 1.0058 148.8 24.7 638' 164
2022 11 28 09  06 30 33.033   +25 37 41.21  .02238 1.0059 148.8 24.8 634' 164
2022 11 28 10  06 30 33.746   +25 37 49.94  .02249 1.0060 148.9 24.8 633' 164
2022 11 28 11  06 30 34.443   +25 37 58.59  .02260 1.0061 148.9 24.8 634' 165
2022 11 28 12  06 30 35.124   +25 38 07.15  .02271 1.0062 148.9 24.8 636' 165
2022 11 28 13  06 30 35.788   +25 38 15.63  .02282 1.0063 149.0 24.8 641' 165
2022 11 28 14  06 30 36.437   +25 38 24.03  .02293 1.0063 149.0 24.8 647' 165
2022 11 28 15  06 30 37.071   +25 38 32.34  .02304 1.0064 149.1 24.8 654' 166
2022 11 28 16  06 30 37.690   +25 38 40.58  .02315 1.0065 149.1 24.8 663' 166
2022 11 28 17  06 30 38.293   +25 38 48.73  .02326 1.0066 149.1 24.8 673' 166
2022 11 28 18  06 30 38.882   +25 38 56.81  .02337 1.0067 149.2 24.8 685' 167
2022 11 28 19  06 30 39.456   +25 39 04.80  .02348 1.0068 149.2 24.9 697' 167
2022 11 28 20  06 30 40.015   +25 39 12.72  .02359 1.0069 149.3 24.9 711' 167